,,,PA_Meas_PMT16A,,PR_Meas_QMR101_102,,RH_Meas_QMH101,,SR_Meas_QMS101,,TA_Meas_QMH101,,GenWind,,GenWind,
date,time,status,PA,status,PR,status,RH,status,SR,status,TA,status,DirAvg,status,SpdAvg,
2009-10-03, 00:00:04,VALID,1000.32,VALID,0,VALID,86.3826,VALID,0,VALID,25.4774,VALID,114,VALID,0.725391,
2009-10-03, 00:01:04,VALID,1000.32,VALID,0,VALID,86.3444,VALID,0,VALID,25.4578,VALID,113,VALID,0.598437,
2009-10-03, 00:02:04,VALID,1000.29,VALID,0,VALID,86.5733,VALID,0,VALID,25.4383,VALID,96,VALID,0.558203,
2009-10-03, 00:03:04,VALID,1000.32,VALID,0,VALID,86.642,VALID,0,VALID,25.4188,VALID,97,VALID,0.366797,
2009-10-03, 00:04:04,VALID,1000.3,VALID,0,VALID,86.7946,VALID,0,VALID,25.3797,VALID,97,VALID,0.505078,
2009-10-03, 00:05:04,VALID,1000.31,VALID,0,VALID,86.9472,VALID,0,VALID,25.3797,VALID,97,VALID,0.813672,
2009-10-03, 00:06:04,VALID,1000.29,VALID,0,VALID,86.9014,VALID,0,VALID,25.3797,VALID,87,VALID,0.784766,
2009-10-03, 00:07:04,VALID,1000.29,VALID,0,VALID,86.7793,VALID,0,VALID,25.3797,VALID,80,VALID,0.542578,
2009-10-03, 00:08:04,VALID,1000.3,VALID,0,VALID,86.8861,VALID,0,VALID,25.3797,VALID,80,VALID,0.581641,
2009-10-03, 00:09:04,VALID,1000.27,VALID,0,VALID,87.26,VALID,0,VALID,25.3602,VALID,80,VALID,0.726953,
2009-10-03, 00:10:04,VALID,1000.28,VALID,0,VALID,87.3286,VALID,0,VALID,25.3602,VALID,80,VALID,0.741797,
2009-10-03, 00:11:04,VALID,1000.28,VALID,0,VALID,87.1074,VALID,0,VALID,25.3602,VALID,80,VALID,0.716406,
2009-10-03, 00:12:04,VALID,1000.28,VALID,0,VALID,87.0692,VALID,0,VALID,25.3407,VALID,64,VALID,0.726563,
2009-10-03, 00:13:04,VALID,1000.26,VALID,0,VALID,86.6572,VALID,0,VALID,25.3017,VALID,64,VALID,0.446875,
2009-10-03, 00:14:04,VALID,1000.24,VALID,0,VALID,86.8937,VALID,0,VALID,25.2626,VALID,64,VALID,0.416016,
2009-10-03, 00:15:04,VALID,1000.25,VALID,0,VALID,87.176,VALID,0,VALID,25.2236,VALID,65,VALID,0.506641,
2009-10-03, 00:16:04,VALID,1000.23,VALID,0,VALID,87.4583,VALID,0,VALID,25.1826,VALID,65,VALID,0.445313,
2009-10-03, 00:17:04,VALID,1000.23,VALID,0,VALID,87.9695,VALID,0,VALID,25.165,VALID,65,VALID,0.548047,
2009-10-03, 00:18:04,VALID,1000.2,VALID,0,VALID,88.145,VALID,0,VALID,25.165,VALID,65,VALID,0.416797,
2009-10-03, 00:19:04,VALID,1000.2,VALID,0,VALID,88,VALID,0,VALID,25.165,VALID,64,VALID,0.554297,
2009-10-03, 00:20:04,VALID,1000.17,VALID,0,VALID,88.2137,VALID,0,VALID,25.1064,VALID,62,VALID,0.470313,
2009-10-03, 00:21:04,VALID,1000.17,VALID,0,VALID,88.4654,VALID,0,VALID,25.0869,VALID,62,VALID,0.435937,
2009-10-03, 00:22:04,VALID,1000.15,VALID,0,VALID,88.496,VALID,0,VALID,25.046,VALID,62,VALID,0.332422,
2009-10-03, 00:23:04,VALID,1000.13,VALID,0,VALID,88.7096,VALID,0,VALID,25.0284,VALID,62,VALID,0.237891,
2009-10-03, 00:24:04,VALID,1000.16,VALID,0,VALID,88.8851,VALID,0,VALID,25.0088,VALID,62,VALID,0.182422,
2009-10-03, 00:25:04,VALID,1000.15,VALID,0,VALID,89.0377,VALID,0,VALID,24.9893,VALID,62,VALID,0.310547,
2009-10-03, 00:26:04,VALID,1000.15,VALID,0,VALID,89.2818,VALID,0,VALID,24.9698,VALID,62,VALID,0.307031,
2009-10-03, 00:27:04,VALID,1000.12,VALID,0,VALID,89.4039,VALID,0,VALID,24.9503,VALID,62,VALID,0.132813,
2009-10-03, 00:28:04,VALID,1000.1,VALID,0,VALID,89.4115,VALID,0,VALID,24.9308,VALID,62,VALID,0.258594,
2009-10-03, 00:29:04,VALID,1000.09,VALID,0,VALID,89.6251,VALID,0,VALID,24.9112,VALID,62,VALID,0.394141,
2009-10-03, 00:30:04,VALID,1000.07,VALID,0,VALID,89.7396,VALID,0,VALID,24.9112,VALID,62,VALID,0.425391,
2009-10-03, 00:31:04,VALID,1000.07,VALID,0,VALID,89.8083,VALID,0,VALID,24.8917,VALID,62,VALID,0.419922,
2009-10-03, 00:32:04,VALID,1000.04,VALID,0,VALID,89.9685,VALID,0,VALID,24.8917,VALID,67,VALID,0.444922,
2009-10-03, 00:33:04,VALID,1000.01,VALID,0,VALID,89.793,VALID,0,VALID,24.8703,VALID,67,VALID,0.396484,
2009-10-03, 00:34:04,VALID,999.98,VALID,0,VALID,89.8235,VALID,0,VALID,24.8508,VALID,67,VALID,0.455078,
2009-10-03, 00:35:04,VALID,999.955,VALID,0,VALID,90.0677,VALID,0,VALID,24.8722,VALID,67,VALID,0.422656,
2009-10-03, 00:36:04,VALID,999.905,VALID,0,VALID,89.999,VALID,0,VALID,24.8917,VALID,67,VALID,0.389844,
2009-10-03, 00:37:04,VALID,999.863,VALID,0,VALID,89.8998,VALID,0,VALID,24.8917,VALID,67,VALID,0.536719,
2009-10-03, 00:38:04,VALID,999.873,VALID,0,VALID,89.7091,VALID,0,VALID,24.8527,VALID,67,VALID,0.505859,
2009-10-03, 00:39:04,VALID,999.871,VALID,0,VALID,89.9074,VALID,0,VALID,24.8527,VALID,77,VALID,0.4625,
2009-10-03, 00:40:04,VALID,999.84,VALID,0,VALID,89.6862,VALID,0,VALID,24.8722,VALID,78,VALID,0.508984,
2009-10-03, 00:41:04,VALID,999.799,VALID,0,VALID,89.793,VALID,0,VALID,24.8527,VALID,78,VALID,0.279687,
2009-10-03, 00:42:04,VALID,999.765,VALID,0,VALID,89.7549,VALID,0,VALID,24.8722,VALID,78,VALID,0.219141,
2009-10-03, 00:43:04,VALID,999.754,VALID,0,VALID,89.6862,VALID,0,VALID,24.8527,VALID,78,VALID,0.0628906,
2009-10-03, 00:44:04,VALID,999.702,VALID,0,VALID,89.587,VALID,0,VALID,24.8527,VALID,78,VALID,0.234766,
2009-10-03, 00:45:04,VALID,999.702,VALID,0,VALID,89.5946,VALID,0,VALID,24.8332,VALID,78,VALID,0.153906,
2009-10-03, 00:46:04,VALID,999.707,VALID,0,VALID,89.7549,VALID,0,VALID,24.8117,VALID,78,VALID,0.389453,
2009-10-03, 00:47:04,VALID,999.685,VALID,0,VALID,89.7777,VALID,0,VALID,24.8527,VALID,78,VALID,0.444531,
2009-10-03, 00:48:04,VALID,999.68,VALID,0,VALID,89.5717,VALID,0,VALID,24.8527,VALID,122,VALID,0.646484,
2009-10-03, 00:49:04,VALID,999.634,VALID,0,VALID,89.587,VALID,0,VALID,24.8527,VALID,122,VALID,0.64375,
2009-10-03, 00:50:04,VALID,999.605,VALID,0,VALID,89.587,VALID,0,VALID,24.8722,VALID,122,VALID,0.440625,
2009-10-03, 00:51:04,VALID,999.588,VALID,0,VALID,89.32,VALID,0,VALID,24.8917,VALID,122,VALID,0.422656,
2009-10-03, 00:52:04,VALID,999.571,VALID,0,VALID,89.2208,VALID,0,VALID,24.8917,VALID,122,VALID,0.366016,
2009-10-03, 00:53:04,VALID,999.56,VALID,0,VALID,89.1826,VALID,0,VALID,24.8936,VALID,122,VALID,0.557422,
2009-10-03, 00:54:04,VALID,999.508,VALID,0,VALID,89.0377,VALID,0,VALID,24.8527,VALID,122,VALID,0.243359,
2009-10-03, 00:55:04,VALID,999.509,VALID,0,VALID,88.9843,VALID,0,VALID,24.8508,VALID,122,VALID,0.267188,
2009-10-03, 00:56:04,VALID,999.471,VALID,0,VALID,88.8774,VALID,0,VALID,24.8527,VALID,122,VALID,0.224609,
2009-10-03, 00:57:04,VALID,999.426,VALID,0,VALID,88.8622,VALID,0,VALID,24.8332,VALID,122,VALID,0.2,
2009-10-03, 00:58:04,VALID,999.395,VALID,0,VALID,88.8469,VALID,0,VALID,24.8136,VALID,122,VALID,0.186719,
2009-10-03, 00:59:04,VALID,999.352,VALID,0,VALID,88.8469,VALID,0,VALID,24.7941,VALID,122,VALID,0.00078125,
2009-10-03, 01:00:04,VALID,999.34,VALID,0,VALID,88.8393,VALID,0,VALID,24.757,VALID,122,VALID,0.114844,
2009-10-03, 01:01:04,VALID,999.33,VALID,0,VALID,88.7096,VALID,0,VALID,24.6965,VALID,110,VALID,0.500391,
2009-10-03, 01:02:04,VALID,999.323,VALID,0,VALID,88.908,VALID,0,VALID,24.6575,VALID,79,VALID,0.764844,
2009-10-03, 01:03:04,VALID,999.326,VALID,0,VALID,89.1521,VALID,0,VALID,24.638,VALID,69,VALID,0.945703,
2009-10-03, 01:04:04,VALID,999.291,VALID,0,VALID,89.7625,VALID,0,VALID,24.6575,VALID,69,VALID,0.98125,
2009-10-03, 01:05:04,VALID,999.332,VALID,0,VALID,89.6709,VALID,0,VALID,24.6789,VALID,62,VALID,0.736719,
2009-10-03, 01:06:04,VALID,999.304,VALID,0,VALID,89.8922,VALID,0,VALID,24.638,VALID,59,VALID,0.429297,
2009-10-03, 01:07:04,VALID,999.326,VALID,0,VALID,89.7625,VALID,0,VALID,24.6184,VALID,59,VALID,0.2625,
2009-10-03, 01:08:04,VALID,999.332,VALID,0,VALID,89.793,VALID,0,VALID,24.5989,VALID,59,VALID,0.0261719,
2009-10-03, 01:09:04,VALID,999.362,VALID,0,VALID,90.0677,VALID,0,VALID,24.5794,VALID,59,VALID,0.240234,
2009-10-03, 01:10:04,VALID,999.335,VALID,0,VALID,90.1821,VALID,0,VALID,24.5794,VALID,59,VALID,0.296875,
2009-10-03, 01:11:04,VALID,999.319,VALID,0,VALID,90.2126,VALID,0,VALID,24.5989,VALID,59,VALID,0.361719,
2009-10-03, 01:12:04,VALID,999.304,VALID,0,VALID,90.2813,VALID,0,VALID,24.5989,VALID,59,VALID,0.276953,
2009-10-03, 01:13:04,VALID,999.271,VALID,0,VALID,90.3805,VALID,0,VALID,24.5989,VALID,59,VALID,0.247656,
2009-10-03, 01:14:04,VALID,999.285,VALID,0,VALID,90.2737,VALID,0,VALID,24.5989,VALID,59,VALID,0.0199219,
2009-10-03, 01:15:04,VALID,999.266,VALID,0,VALID,90.2355,VALID,0,VALID,24.5794,VALID,59,VALID,0,
2009-10-03, 01:16:04,VALID,999.285,VALID,0,VALID,90.2737,VALID,0,VALID,24.5404,VALID,59,VALID,0,
2009-10-03, 01:17:04,VALID,999.28,VALID,0,VALID,90.4263,VALID,0,VALID,24.5385,VALID,59,VALID,0,
2009-10-03, 01:18:04,VALID,999.294,VALID,0,VALID,90.5026,VALID,0,VALID,24.5404,VALID,59,VALID,0.219141,
2009-10-03, 01:19:04,VALID,999.281,VALID,0,VALID,90.4644,VALID,0,VALID,24.5404,VALID,59,VALID,0.369922,
2009-10-03, 01:20:04,VALID,999.234,VALID,0,VALID,90.7696,VALID,0,VALID,24.519,VALID,59,VALID,0.426953,
2009-10-03, 01:21:04,VALID,999.258,VALID,0,VALID,90.7772,VALID,0,VALID,24.519,VALID,59,VALID,0.429688,
2009-10-03, 01:22:04,VALID,999.262,VALID,0,VALID,90.5865,VALID,0,VALID,24.5404,VALID,59,VALID,0.427344,
2009-10-03, 01:23:04,VALID,999.224,VALID,0,VALID,90.556,VALID,0,VALID,24.5013,VALID,66,VALID,0.347656,
2009-10-03, 01:24:04,VALID,999.215,VALID,0,VALID,90.6323,VALID,0,VALID,24.4818,VALID,66,VALID,0.489844,
2009-10-03, 01:25:04,VALID,999.207,VALID,0,VALID,90.6094,VALID,0,VALID,24.5013,VALID,66,VALID,0.416406,
2009-10-03, 01:26:04,VALID,999.186,VALID,0,VALID,90.4797,VALID,0,VALID,24.4623,VALID,66,VALID,0.446484,
2009-10-03, 01:27:04,VALID,999.179,VALID,0,VALID,90.556,VALID,0,VALID,24.4623,VALID,79,VALID,0.414453,
2009-10-03, 01:28:04,VALID,999.149,VALID,0,VALID,90.3042,VALID,0,VALID,24.4623,VALID,79,VALID,0.323047,
2009-10-03, 01:29:04,VALID,999.171,VALID,0,VALID,90.556,VALID,0,VALID,24.4428,VALID,79,VALID,0.358594,
2009-10-03, 01:30:04,VALID,999.191,VALID,0,VALID,90.5026,VALID,0,VALID,24.4623,VALID,79,VALID,0.272656,
2009-10-03, 01:31:04,VALID,999.211,VALID,0,VALID,90.5788,VALID,0,VALID,24.4623,VALID,79,VALID,0.154687,
2009-10-03, 01:32:04,VALID,999.206,VALID,0,VALID,90.4873,VALID,0,VALID,24.4818,VALID,79,VALID,0,
2009-10-03, 01:33:04,VALID,999.215,VALID,0,VALID,90.5102,VALID,0,VALID,24.4623,VALID,79,VALID,0,
2009-10-03, 01:34:04,VALID,999.232,VALID,0,VALID,90.4949,VALID,0,VALID,24.4623,VALID,79,VALID,0,
2009-10-03, 01:35:04,VALID,999.21,VALID,0,VALID,90.5178,VALID,0,VALID,24.4623,VALID,79,VALID,0.00703125,
2009-10-03, 01:36:04,VALID,999.221,VALID,0,VALID,90.6551,VALID,0,VALID,24.4818,VALID,80,VALID,0.336328,
2009-10-03, 01:37:04,VALID,999.212,VALID,0,VALID,90.5788,VALID,0,VALID,24.4623,VALID,81,VALID,0.271875,
2009-10-03, 01:38:04,VALID,999.21,VALID,0,VALID,90.6857,VALID,0,VALID,24.4623,VALID,81,VALID,0.428516,
2009-10-03, 01:39:04,VALID,999.242,VALID,0,VALID,90.6475,VALID,0,VALID,24.4409,VALID,83,VALID,0.239453,
2009-10-03, 01:40:04,VALID,999.22,VALID,0,VALID,90.5865,VALID,0,VALID,24.4428,VALID,83,VALID,0.0257812,
2009-10-03, 01:41:04,VALID,999.207,VALID,0,VALID,90.6399,VALID,0,VALID,24.4233,VALID,83,VALID,0.00117188,
2009-10-03, 01:42:04,VALID,999.168,VALID,0,VALID,90.617,VALID,0,VALID,24.4233,VALID,83,VALID,0.189453,
2009-10-03, 01:43:04,VALID,999.148,VALID,0,VALID,90.6094,VALID,0,VALID,24.4037,VALID,83,VALID,0.141016,
2009-10-03, 01:44:04,VALID,999.096,VALID,0,VALID,90.6475,VALID,0,VALID,24.4037,VALID,83,VALID,0.144922,
2009-10-03, 01:45:04,VALID,999.124,VALID,0,VALID,90.4491,VALID,0,VALID,24.3647,VALID,83,VALID,0.114453,
2009-10-03, 01:46:04,VALID,999.154,VALID,0,VALID,90.5483,VALID,0,VALID,24.3647,VALID,83,VALID,0.135156,
2009-10-03, 01:47:04,VALID,999.159,VALID,0,VALID,90.6475,VALID,0,VALID,24.3452,VALID,83,VALID,0.0796875,
2009-10-03, 01:48:04,VALID,999.135,VALID,0,VALID,90.7467,VALID,0,VALID,24.3647,VALID,80,VALID,0.380078,
2009-10-03, 01:49:04,VALID,999.162,VALID,0,VALID,90.7467,VALID,0,VALID,24.3647,VALID,81,VALID,0.213281,
2009-10-03, 01:50:04,VALID,999.142,VALID,0,VALID,90.6017,VALID,0,VALID,24.3647,VALID,81,VALID,0.175781,
2009-10-03, 01:51:04,VALID,999.132,VALID,0,VALID,90.6628,VALID,0,VALID,24.3647,VALID,81,VALID,0.182422,
2009-10-03, 01:52:04,VALID,999.138,VALID,0,VALID,90.5712,VALID,0,VALID,24.3452,VALID,81,VALID,0.239453,
2009-10-03, 01:53:04,VALID,999.095,VALID,0,VALID,90.3652,VALID,0,VALID,24.3238,VALID,121,VALID,0.5625,
2009-10-03, 01:54:04,VALID,999.107,VALID,0,VALID,90.3805,VALID,0,VALID,24.3452,VALID,121,VALID,0.558984,
2009-10-03, 01:55:04,VALID,999.079,VALID,0,VALID,90.4797,VALID,0,VALID,24.3647,VALID,126,VALID,0.921875,
2009-10-03, 01:56:04,VALID,999.074,VALID,0,VALID,90.1745,VALID,0,VALID,24.3842,VALID,121,VALID,1.02695,
2009-10-03, 01:57:04,VALID,999.076,VALID,0,VALID,90.0295,VALID,0,VALID,24.4019,VALID,123,VALID,1.21523,
2009-10-03, 01:58:04,VALID,999.057,VALID,0,VALID,89.793,VALID,0,VALID,24.4233,VALID,118,VALID,1.21016,
2009-10-03, 01:59:04,VALID,999.018,VALID,0,VALID,89.6862,VALID,0,VALID,24.4623,VALID,122,VALID,1.1875,
2009-10-03, 02:00:04,VALID,999.014,VALID,0,VALID,89.4878,VALID,0,VALID,24.4623,VALID,128,VALID,1.1168,
2009-10-03, 02:01:04,VALID,998.997,VALID,0,VALID,89.4802,VALID,0,VALID,24.5013,VALID,127,VALID,1.21328,
2009-10-03, 02:02:04,VALID,998.955,VALID,0,VALID,89.3352,VALID,0,VALID,24.5013,VALID,129,VALID,1.06133,
2009-10-03, 02:03:04,VALID,998.927,VALID,0,VALID,89.3123,VALID,0,VALID,24.48,VALID,128,VALID,1.08359,
2009-10-03, 02:04:04,VALID,998.929,VALID,0,VALID,89.3734,VALID,0,VALID,24.5013,VALID,129,VALID,1.22695,
2009-10-03, 02:05:04,VALID,998.885,VALID,0,VALID,89.3963,VALID,0,VALID,24.5209,VALID,129,VALID,1.29336,
2009-10-03, 02:06:04,VALID,998.843,VALID,0,VALID,89.1521,VALID,0,VALID,24.5209,VALID,131,VALID,1.32187,
2009-10-03, 02:07:04,VALID,998.834,VALID,0,VALID,88.9309,VALID,0,VALID,24.4995,VALID,132,VALID,1.18398,
2009-10-03, 02:08:04,VALID,998.827,VALID,0,VALID,88.763,VALID,0,VALID,24.48,VALID,134,VALID,1.02188,
2009-10-03, 02:09:04,VALID,998.826,VALID,0,VALID,88.6714,VALID,0,VALID,24.4818,VALID,138,VALID,1.31172,
2009-10-03, 02:10:04,VALID,998.824,VALID,0,VALID,88.7706,VALID,0,VALID,24.4623,VALID,136,VALID,1.42109,
2009-10-03, 02:11:04,VALID,998.809,VALID,0,VALID,88.6638,VALID,0,VALID,24.4409,VALID,139,VALID,1.28086,
2009-10-03, 02:12:04,VALID,998.801,VALID,0,VALID,88.6714,VALID,0,VALID,24.4623,VALID,138,VALID,1.36641,
2009-10-03, 02:13:04,VALID,998.797,VALID,0,VALID,88.5341,VALID,0,VALID,24.5013,VALID,140,VALID,1.35508,
2009-10-03, 02:14:04,VALID,998.834,VALID,0,VALID,88.2442,VALID,0,VALID,24.5404,VALID,136,VALID,1.01914,
2009-10-03, 02:15:04,VALID,998.88,VALID,0,VALID,88.0534,VALID,0,VALID,24.5404,VALID,131,VALID,0.860937,
2009-10-03, 02:16:04,VALID,998.873,VALID,0,VALID,87.8932,VALID,0,VALID,24.5599,VALID,132,VALID,0.786719,
2009-10-03, 02:17:04,VALID,998.87,VALID,0,VALID,87.8169,VALID,0,VALID,24.5599,VALID,133,VALID,0.682031,
2009-10-03, 02:18:04,VALID,998.884,VALID,0,VALID,87.7483,VALID,0,VALID,24.5599,VALID,133,VALID,0.446094,
2009-10-03, 02:19:04,VALID,998.903,VALID,0,VALID,87.7101,VALID,0,VALID,24.5385,VALID,137,VALID,0.435156,
2009-10-03, 02:20:04,VALID,998.917,VALID,0,VALID,87.733,VALID,0,VALID,24.5599,VALID,143,VALID,0.0699219,
2009-10-03, 02:21:04,VALID,998.889,VALID,0,VALID,87.6949,VALID,0,VALID,24.5599,VALID,143,VALID,0,
2009-10-03, 02:22:04,VALID,998.89,VALID,0,VALID,87.6643,VALID,0,VALID,24.5404,VALID,143,VALID,0.0605469,
2009-10-03, 02:23:04,VALID,998.895,VALID,0,VALID,87.5423,VALID,0,VALID,24.5013,VALID,143,VALID,0.361719,
2009-10-03, 02:24:04,VALID,998.899,VALID,0,VALID,87.7101,VALID,0,VALID,24.4623,VALID,143,VALID,0.325781,
2009-10-03, 02:25:04,VALID,998.91,VALID,0,VALID,88.1374,VALID,0,VALID,24.4233,VALID,143,VALID,0.132031,
2009-10-03, 02:26:04,VALID,998.9,VALID,0,VALID,88.2976,VALID,0,VALID,24.4233,VALID,143,VALID,0.100391,
2009-10-03, 02:27:04,VALID,998.906,VALID,0,VALID,88.3281,VALID,0,VALID,24.4233,VALID,143,VALID,0,
2009-10-03, 02:28:04,VALID,998.879,VALID,0,VALID,88.2594,VALID,0,VALID,24.4019,VALID,143,VALID,0,
2009-10-03, 02:29:04,VALID,998.883,VALID,0,VALID,88.2671,VALID,0,VALID,24.3842,VALID,143,VALID,0,
2009-10-03, 02:30:04,VALID,998.858,VALID,0,VALID,88.2137,VALID,0,VALID,24.3629,VALID,143,VALID,0,
2009-10-03, 02:31:04,VALID,998.861,VALID,0,VALID,88.3892,VALID,0,VALID,24.3647,VALID,143,VALID,0,
2009-10-03, 02:32:04,VALID,998.848,VALID,0,VALID,88.3663,VALID,0,VALID,24.3238,VALID,143,VALID,0.131641,
2009-10-03, 02:33:04,VALID,998.845,VALID,0,VALID,88.6409,VALID,0,VALID,24.3062,VALID,143,VALID,0.0410156,
2009-10-03, 02:34:04,VALID,998.85,VALID,0,VALID,88.9309,VALID,0,VALID,24.2671,VALID,143,VALID,0.0726563,
2009-10-03, 02:35:04,VALID,998.853,VALID,0,VALID,88.9995,VALID,0,VALID,24.2476,VALID,143,VALID,0,
2009-10-03, 02:36:04,VALID,998.86,VALID,0,VALID,89.1216,VALID,0,VALID,24.2476,VALID,143,VALID,0.139062,
2009-10-03, 02:37:04,VALID,998.834,VALID,0,VALID,89.1826,VALID,0,VALID,24.2476,VALID,143,VALID,0.320313,
2009-10-03, 02:38:04,VALID,998.845,VALID,0,VALID,89.1216,VALID,0,VALID,24.2671,VALID,143,VALID,0.632422,
2009-10-03, 02:39:04,VALID,998.853,VALID,0,VALID,89.03,VALID,0,VALID,24.2671,VALID,143,VALID,0.692578,
2009-10-03, 02:40:04,VALID,998.829,VALID,0,VALID,88.6028,VALID,0,VALID,24.2866,VALID,135,VALID,0.79375,
2009-10-03, 02:41:04,VALID,998.823,VALID,0,VALID,88.763,VALID,0,VALID,24.3452,VALID,135,VALID,0.910156,
2009-10-03, 02:42:04,VALID,998.84,VALID,0,VALID,88.3434,VALID,0,VALID,24.3842,VALID,131,VALID,1.00703,
2009-10-03, 02:43:04,VALID,998.838,VALID,0,VALID,87.9466,VALID,0,VALID,24.4037,VALID,131,VALID,1.02227,
2009-10-03, 02:44:04,VALID,998.797,VALID,0,VALID,88.0534,VALID,0,VALID,24.4037,VALID,131,VALID,0.987109,
2009-10-03, 02:45:04,VALID,998.826,VALID,0,VALID,87.9237,VALID,0,VALID,24.4037,VALID,131,VALID,0.836719,
2009-10-03, 02:46:04,VALID,998.824,VALID,0,VALID,88.0458,VALID,0,VALID,24.3842,VALID,131,VALID,0.535547,
2009-10-03, 02:47:04,VALID,998.839,VALID,0,VALID,88.1755,VALID,0,VALID,24.3647,VALID,131,VALID,0.193359,
2009-10-03, 02:48:04,VALID,998.839,VALID,0,VALID,88.2671,VALID,0,VALID,24.3647,VALID,131,VALID,0,
2009-10-03, 02:49:04,VALID,998.85,VALID,0,VALID,88.2594,VALID,0,VALID,24.3452,VALID,131,VALID,0,
2009-10-03, 02:50:04,VALID,998.824,VALID,0,VALID,88.3586,VALID,0,VALID,24.3257,VALID,131,VALID,0.330469,
2009-10-03, 02:51:04,VALID,998.822,VALID,0,VALID,88.3663,VALID,0,VALID,24.2866,VALID,118,VALID,0.5875,
2009-10-03, 02:52:04,VALID,998.819,VALID,0,VALID,88.7859,VALID,0,VALID,24.2671,VALID,95,VALID,0.579297,
2009-10-03, 02:53:04,VALID,998.842,VALID,0,VALID,88.9232,VALID,0,VALID,24.2476,VALID,96,VALID,0.514844,
2009-10-03, 02:54:04,VALID,998.864,VALID,0,VALID,88.8774,VALID,0,VALID,24.2086,VALID,175,VALID,1.12812,
2009-10-03, 02:55:04,VALID,998.86,VALID,0,VALID,89.5717,VALID,0,VALID,24.2281,VALID,189,VALID,1.75859,
2009-10-03, 02:56:04,VALID,998.844,VALID,0,VALID,89.1903,VALID,0,VALID,24.3238,VALID,186,VALID,1.67227,
2009-10-03, 02:57:04,VALID,998.811,VALID,0,VALID,88.557,VALID,0,VALID,24.4428,VALID,183,VALID,1.12266,
2009-10-03, 02:58:04,VALID,998.789,VALID,0,VALID,88.0611,VALID,0,VALID,24.5209,VALID,191,VALID,1.40898,
2009-10-03, 02:59:04,VALID,998.772,VALID,0,VALID,87.6109,VALID,0,VALID,24.5989,VALID,192,VALID,1.30039,
2009-10-03, 03:00:04,VALID,998.731,VALID,0,VALID,87.0387,VALID,0,VALID,24.6575,VALID,183,VALID,1.47578,
2009-10-03, 03:01:04,VALID,998.723,VALID,0,VALID,86.6572,VALID,0,VALID,24.7356,VALID,189,VALID,1.26875,
2009-10-03, 03:02:04,VALID,998.692,VALID,0,VALID,86.1079,VALID,0,VALID,24.7746,VALID,169,VALID,1.1375,
2009-10-03, 03:03:04,VALID,998.641,VALID,0,VALID,85.9706,VALID,0,VALID,24.7746,VALID,169,VALID,1.36875,
2009-10-03, 03:04:04,VALID,998.637,VALID,0,VALID,85.7112,VALID,0,VALID,24.7746,VALID,164,VALID,1.36094,
2009-10-03, 03:05:04,VALID,998.614,VALID,0,VALID,85.6043,VALID,0,VALID,24.7746,VALID,160,VALID,1.53125,
2009-10-03, 03:06:04,VALID,998.654,VALID,0,VALID,85.612,VALID,0,VALID,24.7356,VALID,159,VALID,0.923828,
2009-10-03, 03:07:04,VALID,998.693,VALID,0,VALID,85.8485,VALID,0,VALID,24.6965,VALID,170,VALID,1.00977,
2009-10-03, 03:08:04,VALID,998.72,VALID,0,VALID,85.9324,VALID,0,VALID,24.6361,VALID,172,VALID,0.601172,
2009-10-03, 03:09:04,VALID,998.738,VALID,0,VALID,86.0163,VALID,0,VALID,24.5989,VALID,166,VALID,0.451562,
2009-10-03, 03:10:04,VALID,998.756,VALID,0,VALID,86.1079,VALID,0,VALID,24.5794,VALID,125,VALID,0.645312,
2009-10-03, 03:11:04,VALID,998.834,VALID,0,VALID,86.2147,VALID,0,VALID,24.4995,VALID,113,VALID,0.499609,
2009-10-03, 03:12:04,VALID,998.861,VALID,0,VALID,86.3292,VALID,0,VALID,24.4623,VALID,74,VALID,0.589844,
2009-10-03, 03:13:04,VALID,998.908,VALID,0,VALID,86.7793,VALID,0,VALID,24.4233,VALID,44,VALID,0.784766,
2009-10-03, 03:14:04,VALID,998.916,VALID,0,VALID,86.9853,VALID,0,VALID,24.3842,VALID,48,VALID,1.01172,
2009-10-03, 03:15:04,VALID,998.904,VALID,0,VALID,87.2447,VALID,0,VALID,24.3452,VALID,49,VALID,0.991016,
2009-10-03, 03:16:04,VALID,998.902,VALID,0,VALID,87.3897,VALID,0,VALID,24.3257,VALID,35,VALID,1.19805,
2009-10-03, 03:17:04,VALID,998.931,VALID,0,VALID,87.26,VALID,0,VALID,24.2866,VALID,33,VALID,1.42266,
2009-10-03, 03:18:04,VALID,998.947,VALID,0,VALID,87.5041,VALID,0,VALID,24.2476,VALID,34,VALID,1.62461,
2009-10-03, 03:19:04,VALID,998.969,VALID,0,VALID,87.9085,VALID,0,VALID,24.2281,VALID,46,VALID,1.54688,
2009-10-03, 03:20:04,VALID,998.96,VALID,0,VALID,88.0306,VALID,0,VALID,24.2281,VALID,60,VALID,1.42266,
2009-10-03, 03:21:04,VALID,998.951,VALID,0,VALID,88.206,VALID,0,VALID,24.2476,VALID,61,VALID,1.12969,
2009-10-03, 03:22:04,VALID,998.969,VALID,0,VALID,88.0229,VALID,0,VALID,24.2476,VALID,69,VALID,1.0168,
2009-10-03, 03:23:04,VALID,998.966,VALID,0,VALID,87.8322,VALID,0,VALID,24.2476,VALID,71,VALID,1.09805,
2009-10-03, 03:24:04,VALID,998.935,VALID,0,VALID,87.6414,VALID,0,VALID,24.2086,VALID,65,VALID,1.24648,
2009-10-03, 03:25:04,VALID,998.878,VALID,0,VALID,87.8169,VALID,0,VALID,24.1287,VALID,61,VALID,1.08555,
2009-10-03, 03:26:04,VALID,998.912,VALID,0,VALID,87.9619,VALID,0,VALID,24.072,VALID,63,VALID,0.869141,
2009-10-03, 03:27:04,VALID,998.932,VALID,0,VALID,88.3815,VALID,0,VALID,24.0134,VALID,87,VALID,0.834766,
2009-10-03, 03:28:04,VALID,998.955,VALID,0,VALID,89.1597,VALID,0,VALID,23.9939,VALID,102,VALID,1.175,
2009-10-03, 03:29:04,VALID,998.935,VALID,0,VALID,89.32,VALID,0,VALID,23.9744,VALID,93,VALID,0.865625,
2009-10-03, 03:30:04,VALID,998.919,VALID,0,VALID,89.5489,VALID,0,VALID,23.9744,VALID,69,VALID,0.679688,
2009-10-03, 03:31:04,VALID,998.945,VALID,0,VALID,89.5336,VALID,0,VALID,23.9549,VALID,30,VALID,0.838281,
2009-10-03, 03:32:04,VALID,998.972,VALID,0,VALID,89.3505,VALID,0,VALID,23.9354,VALID,29,VALID,0.0867188,
2009-10-03, 03:33:04,VALID,998.984,VALID,0,VALID,89.5641,VALID,0,VALID,23.8768,VALID,29,VALID,0.419531,
2009-10-03, 03:34:04,VALID,998.98,VALID,0,VALID,89.8846,VALID,0,VALID,23.8768,VALID,143,VALID,0.417969,
2009-10-03, 03:35:04,VALID,998.941,VALID,0,VALID,90.1821,VALID,0,VALID,23.8963,VALID,142,VALID,0.362891,
2009-10-03, 03:36:04,VALID,998.913,VALID,0,VALID,90.1287,VALID,0,VALID,23.9159,VALID,136,VALID,0.267188,
2009-10-03, 03:37:04,VALID,998.926,VALID,0,VALID,89.6557,VALID,0,VALID,23.8963,VALID,136,VALID,0.221484,
2009-10-03, 03:38:04,VALID,998.921,VALID,0,VALID,89.7777,VALID,0,VALID,23.8573,VALID,136,VALID,0.183203,
2009-10-03, 03:39:04,VALID,998.905,VALID,0,VALID,89.7472,VALID,0,VALID,23.8183,VALID,136,VALID,0.153906,
2009-10-03, 03:40:04,VALID,998.913,VALID,0,VALID,89.8159,VALID,0,VALID,23.7988,VALID,136,VALID,0,
2009-10-03, 03:41:04,VALID,998.847,VALID,0,VALID,90.2355,VALID,0,VALID,23.797,VALID,17,VALID,0.672656,
2009-10-03, 03:42:04,VALID,998.856,VALID,0,VALID,89.9227,VALID,0,VALID,23.7988,VALID,14,VALID,1.07734,
2009-10-03, 03:43:04,VALID,998.848,VALID,0,VALID,89.5794,VALID,0,VALID,23.7597,VALID,36,VALID,1.24883,
2009-10-03, 03:44:04,VALID,998.889,VALID,0,VALID,89.7396,VALID,0,VALID,23.742,VALID,29,VALID,1.25937,
2009-10-03, 03:45:04,VALID,998.917,VALID,0,VALID,90.0677,VALID,0,VALID,23.6817,VALID,32,VALID,0.951172,
2009-10-03, 03:46:04,VALID,998.933,VALID,0,VALID,89.8617,VALID,0,VALID,23.6622,VALID,360,VALID,0.806641,
2009-10-03, 03:47:04,VALID,998.996,VALID,0,VALID,89.9837,VALID,0,VALID,23.6232,VALID,348,VALID,0.5,